Location: Strawberry
(45.6646°N, 111.9596°W)
Time: 10:13:20
(UTC+00:00)

PRISM - Visible Passes

Search period start: 26 November 2022 00:00
Search period end: 06 December 2022 00:00
Orbit: 550 x 574 km, 98.3° (Epoch: 25 November)

Date Brightness Start Highest point End Pass type
(mag) Time Alt. Az. Time Alt. Az. Time Alt. Az.
26 Nov ? 01:26:02 10° SW 01:28:27 15° W 01:30:52 10° NW visible
26 Nov ? 13:00:14 10° NNE 13:04:12 50° E 13:08:08 10° S visible
27 Nov ? 01:25:23 10° SW 01:27:50 16° W 01:30:19 10° NW visible
27 Nov ? 12:59:38 10° NNE 13:03:35 49° E 13:07:32 10° S visible
28 Nov ? 01:24:42 10° SW 01:27:14 16° W 01:29:46 10° NW visible
28 Nov ? 12:59:02 10° NNE 13:02:59 47° E 13:06:55 10° S visible
29 Nov ? 01:24:02 10° SW 01:26:36 17° W 01:29:12 10° NW visible
29 Nov ? 12:58:25 10° NNE 13:02:21 46° E 13:06:17 10° S visible
30 Nov ? 01:23:21 10° SW 01:25:58 17° W 01:28:37 10° NW visible
30 Nov ? 12:57:48 10° NNE 13:01:44 45° E 13:05:38 10° S visible
01 Dec ? 01:22:38 10° SW 01:25:19 17° W 01:28:02 10° NW visible
01 Dec ? 12:57:10 10° NNE 13:01:05 44° E 13:04:59 10° S visible
02 Dec ? 01:21:56 10° SW 01:24:40 18° W 01:27:25 10° NW visible
02 Dec ? 12:56:32 10° NNE 13:00:26 43° E 13:04:20 10° S visible
03 Dec ? 01:21:13 10° SW 01:24:00 18° W 01:26:48 10° NW visible
03 Dec ? 12:55:53 10° NNE 12:59:47 42° E 13:03:39 10° S visible
04 Dec ? 01:20:30 10° SW 01:23:20 19° W 01:26:12 10° NW visible
04 Dec ? 12:55:14 10° NNE 12:59:07 41° E 13:02:58 10° S visible
05 Dec ? 01:19:46 10° SW 01:22:39 19° W 01:25:34 10° NW visible
05 Dec ? 12:54:34 10° NNE 12:58:26 40° E 13:02:16 10° S visible
